Showing default

EXPLORER 40 (INJUN-5), 3338

Orbit data source: Space-Track

EXPLORER 40 (INJUN-5), 3338 is a payload satellite owned by NASA LaRC (US) in LEO that was launched on Thu, 08 Aug 1968 UTC via an SCOUT B launch vehicle from the Air Force Western Test Range (AFWTR). Payload-class satellites include a variety of spacecraft equipped with specific instruments for various scientific and technological missions. These include communications satellites like Starlink; space stations such as the ISS; scientific satellites like the Hubble; Earth observation satellites from companies like Planet Labs, Umbra, and HawkEye 360; GPS; miniature CubeSats for education and research; and military/defense satellites.

Loading next visibility...
Identifier
3338, 1968-066B
Orbit
LEO
Country
Flag of USUS
Related business
Manufacturer
Iowa
Mission
Spacecraft
Bus & Motor
INJUN E, Unknown motor
Mass
70 kg wet, 70 kg dry
Launch date (UTC)
1968-08-08 (57 years ago)
Launch vehicle
SCOUT B
Launch site
Air Force Western Test Range (AFWTR)
Object type
Payload
Rocket body
Debris
Shape & HBR
Unknown
Radar Cross Section
Large (>1 m²)

Expand to show TLE details & history
Last TLE update: 23 hours ago

TLE from 23 hours ago
0 EXPLORER 40 (INJUN-5)
1 03338U 68066B   25348.07071140  .00000182  00000-0  19202-3 0  9993
2 03338  80.6611 228.4723 1130638 319.6313  32.5903 12.23516142555674
Epoch: 2025-12-14T01:41Z
TLE epoch observation values (Epoch: 2025-12-14T01:41:49.464Z)
Latitude
-0.00003°
Longitude
120.02729°
Altitude
856.237 km
Speed
7.755 km/s
True Right ascension
15h 13m 53s
True Declination
0° 00' 00"
Sunlit
Object was in daylight at epoch
Visualization orbit readout
Latitude
Unknown
Longitude
Unknown
Altitude
Unknown
Speed
Unknown
Apparent Right ascension
Unknown
Apparent Declination
Unknown
Sunlit
N/A
Visualization observer readout
Local Sidereal Time
22:55:44
Azimuth
Unknown
Elevation
Unknown
Doppler factor
Unknown
Orbital elements
Apogee altitude
2,473.844 km
Perigee altitude
675.495 km
Semi-major axis
7,952.807 km
Eccentricity
0.11306
Inclination
80.6611°
RAAN
228.4723°
Arg. of periapsis
319.6313°
True anomaly
40.48087°
Mean anomaly
32.5903°
Eccentric anomaly
36.43797°
Mean motion
3.06029 °/min
Orbital period
117.64 mins
BSTAR
0.00019202
Loading maneuver chart data...
Computing Atmospheric mass density...
Loading historical data...
Loading historical data...
Loading historical data...
Loading historical data...
Loading historical data...
Loading historical data...
Loading historical data...

Documentation

Showing up to 5 results
|